Back to catalog

STARLINK-11241

AliveCommunicationsVLEO
NORAD 60936·PAYLOAD·🇺🇸 United States

Launched Aug 31, 2024 from Vandenberg Space Force Base

Loading…

Next Passes (next 24 hours)

TLE

FreshSource: CelesTrak SupGP

Epoch: Sep 14, 2026, 14:47 UTC

1 60936C 24155N   26257.61645833  .00063449  00000+0  52268-3 0  2577
2 60936  53.1563 130.1525 0001058 106.5882 199.7853 15.69676576    11

Track STARLINK-11241 in real time with AllMySat

Download on the App Store